Location: Drummondville
(45.8830°N, 72.4830°W)
Time: 16:37:18
(UTC-05:00)

Vanguard 2 Rocket - Visible Passes

Search period start: 18 January 2018 00:00
Search period end: 28 January 2018 00:00
Orbit: 556 x 3326 km, 32.9° (Epoch: 18 January)

Date Brightness Start Highest point End Pass type
(mag) Time Alt. Az. Time Alt. Az. Time Alt. Az.
18 Jan 10.6 06:26:31 10° S 06:29:39 12° SSE 06:32:23 10° SE visible
20 Jan 10.2 06:36:40 10° SSW 06:44:02 19° SSE 06:49:25 10° ESE visible
21 Jan 10.4 05:36:55 10° S 05:44:12 17° SSE 05:49:48 10° ESE visible
22 Jan 10.7 04:38:04 10° S 04:44:11 14° SSE 04:49:15 10° SE visible
22 Jan 9.9 06:48:45 10° SW 06:58:22 26° SSE 07:04:47 10° ESE visible
23 Jan 10.9 03:42:30 10° SSE 03:43:59 10° SSE 03:45:25 10° SE visible
23 Jan 10.1 05:48:07 10° SSW 05:58:31 24° SSE 06:05:41 10° ESE visible
24 Jan 10.3 04:47:54 10° SSW 04:58:24 21° SSE 05:06:05 10° ESE visible
25 Jan 10.6 03:48:27 10° S 03:58:07 18° SSE 04:05:45 10° ESE visible
25 Jan 9.8 06:00:26 10° SW 06:12:47 32° SSE 06:20:45 10° ESE visible
26 Jan 10.8 02:50:31 10° SSE 02:57:42 14° SE 03:03:56 10° ESE visible
26 Jan 10.0 04:59:29 10° SSW 05:12:36 29° SSE 05:21:31 10° ESE visible
27 Jan 10.3 03:59:02 10° SSW 04:12:12 26° SSE 04:21:48 10° ESE visible
27 Jan 9.6 06:13:22 10° SW 06:27:01 38° S 06:35:28 10° ESE visible
